This demonstration page uses our WeatherBlox Daily Observations layout. Learn more.

Left ArrowRight Arrow

41.86663, -103.66717

Hourly Observations for January 20, 2020

Temp ( °F °C ) Dew Point ( °F °C ) Humidity (%) Winds ( mph kmh ) Pressure ( in mb ) Visibility ( mi km ) Precip ( " mm )
12:53 am 00:53 Clear 19 -7.2 14 -10 81 81 NNW 6 9 30.47 1032 10 16.0934 0 0
1:53 am 01:53 Clear 16 -8.9 12 -11.1 84 84 NNW 5 7 30.46 1031 10 16.0934 0 0
2:53 am 02:53 Clear 16 -8.9 12 -11.1 84 84 NNE 6 9 30.44 1031 10 16.0934 0 0
3:53 am 03:53 Clear 13 -10.6 10 -12.2 88 88 NNW 5 7 30.46 1032 10 16.0934 0 0
4:53 am 04:53 Clear 12 -11.1 9 -12.8 87 87 NW 5 7 30.48 1032 10 16.0934 0 0
5:53 am 05:53 Clear 12 -11.1 9 -12.8 87 87 NNW 6 9 30.51 1033 10 16.0934 0 0
6:53 am 06:53 Clear 12 -11.1 9 -12.8 87 87 Calm 30.54 1034 10 16.0934 0 0
7:53 am 07:53 Sunny 17 -8.3 12 -11.1 80 80 N 5 7 30.54 1034 10 16.0934 0 0
8:53 am 08:53 Sunny 20 -6.7 16 -8.9 85 85 Calm 30.56 1035 10 16.0934 0 0
9:53 am 09:53 Sunny 28 -2.2 19 -7.2 69 69 Calm 30.51 1033 10 16.0934 0 0
10:53 am 10:53 Sunny 35 1.7 20 -6.7 54 54 SSW 3 6 30.48 1032 10 16.0934 0 0
11:53 am 11:53 Sunny 42 5.6 18 -7.8 38 38 Calm 30.44 1031 10 16.0934 0 0
12:53 pm 12:53 Sunny 45 7.2 16 -8.9 31 31 VRB 3 6 30.39 1029 10 16.0934 0 0
1:53 pm 13:53 Sunny 48 8.9 18 -7.8 30 30 SE 7 11 30.37 1028 10 16.0934 0 0
2:53 pm 14:53 Sunny 48 8.9 17 -8.3 29 29 ESE 12 19 30.35 1028 10 16.0934 0 0
3:53 pm 15:53 Sunny 46 7.8 18 -7.8 32 32 ESE 12 19 30.35 1028 10 16.0934 0 0
4:53 pm 16:53 Sunny 33 0.6 17 -8.3 52 52 ESE 8 13 30.39 1029 10 16.0934 0 0
5:53 pm 17:53 Clear 33 0.6 19 -7.2 56 56 ESE 9 15 30.38 1029 10 16.0934 0 0
6:53 pm 18:53 Clear 30 -1.1 20 -6.7 66 66 ESE 10 17 30.39 1029 10 16.0934 0 0
7:53 pm 19:53 Clear 28 -2.2 20 -6.7 72 72 ESE 13 20 30.37 1028 10 16.0934 0 0
8:53 pm 20:53 Clear 27 -2.8 20 -6.7 75 75 ESE 14 22 30.35 1028 10 16.0934 0 0
9:53 pm 21:53 Clear 26 -3.3 19 -7.2 75 75 ESE 13 20 30.31 1026 10 16.0934 0 0
10:53 pm 22:53 Clear 25 -3.9 19 -7.2 78 78 E 12 19 30.25 1024 10 16.0934 0 0
11:53 pm 23:53 Clear 25 -3.9 19 -7.2 78 78 ESE 13 20 30.22 1024 10 16.0934 0 0

Powered by AerisWeather